Regional Weather Roundup
Issued by NWS

Home | Current Version | Previous Version | Graphics & Text | Print | Product List | Glossary Off
Versions: 1 2 3 4 5 6 7 8 9 10 11 12 13 14 15 16 17 18 19 20 21 22 23 24 25 26 27 28 29 30 31 32 33 34 35 36 37 38 39 40 41 42 43 44 45 46 47 48 49 50

762
ASUS43 KTOP 101708
RWRKS

WEATHER ROUNDUP FOR KANSAS
NATIONAL WEATHER SERVICE GOODLAND KS
1100 AM CST WED FEB 10 2016

NOTE:  "FAIR" INDICATES FEW OR NO CLOUDS BELOW 12,000 FEET WITH NO
SIGNIFICANT WEATHER AND/OR OBSTRUCTIONS TO VISIBILITY.

KSZ001>006-013>018-027>032-041>047-101800-
NORTHWEST KANSAS

CITY           SKY/WX    TMP DP  RH WIND       PRES   REMARKS
GOODLAND       SUNNY     50  24  36 W16       30.08R
HAYS           SUNNY     52  27  37 W10       30.00S
HILL CITY      SUNNY     50  27  40 W13G24    29.99F
RUSSELL        SUNNY     53  30  41 W10       29.97F
$$

KSZ061>065-074>080-084>089-101800-
SOUTHWEST KANSAS

CITY           SKY/WX    TMP DP  RH WIND       PRES   REMARKS
DODGE CITY     SUNNY     56  26  31 W15       30.06F
ELKHART          N/A     63  23  21 W9          N/A
GARDEN CITY    SUNNY     59  23  25 MISG      30.07S
GREAT BEND     SUNNY     54  30  40 W10       30.01F
LIBERAL        SUNNY     61  28  29 W13       30.12F
PRATT          SUNNY     59  25  27 SW18      30.02F
$$

KSZ066>073-081>083-090>101-101800-
SOUTHEAST KANSAS

CITY           SKY/WX    TMP DP  RH WIND       PRES   REMARKS
CHANUTE        SUNNY     38  14  37 S20G25    30.11F WCI  28
COFFEYVILLE    SUNNY     39  14  36 S20G28    30.15F WCI  29
HUTCHINSON     SUNNY     45  26  47 S8        30.03F
MEDICINE LODGE   N/A     49  29  46 CALM      30.04F
NEWTON         SUNNY     39  21  48 SW17      30.05F WCI  30
PARSONS        SUNNY     38  14  37 S17G25    30.14F WCI  28
WICHITA INTL   MOSUNNY   42  24  49 S13       30.06F
WICHITA JABRA  SUNNY     41  22  46 SW15      30.06F
WICHITA MCCONL SUNNY     41  23  49 S13       30.06F
WINFIELD       SUNNY     45  25  45 SW16      30.10F
$$

KSZ007>012-019>026-033>040-048>060-102>105-101800-
NORTHEAST KANSAS

CITY           SKY/WX    TMP DP  RH WIND       PRES   REMARKS
CONCORDIA      SUNNY     46  27  47 W14       29.95F
EMPORIA        SUNNY     41  18  39 SW22      30.03F
LAWRENCE       CLOUDY    36  14  40 S15       30.06F WCI  27
MANHATTAN      SUNNY     41  23  48 SW16      29.99F
MARYSVILLE     SUNNY     41  27  56 SW12      29.95F
OLATHE IND     SUNNY     34  14  43 S18G26    30.06F WCI  23
OLATHE EXE     SUNNY     33  13  43 S16G26    30.06F WCI  23
SALINA         SUNNY     47  27  45 S12       30.00F
TOPEKA BILLARD SUNNY     39  15  37 S16G22    30.04F WCI  30
TOPEKA FORBES  SUNNY     39  16  39 S20       30.03F WCI  29
$$




USA.gov is the U.S. government's official web portal to all federal, state and local government web resources and services.